OneWeb SL0047

operational
NORAD ID: 45152 Int'l Des: 2020-008 Owner: ONEWEB Country: UK Constellation: oneweb
LEOCIRCULARPOLARONEWEB_TYPE

Über OneWeb SL0047

Beschreibung wird geladen...

Live-Position

3D-Globus wird geladen...

Nächste Überflüge

Höhenverlauf

Altitude vs Time

uPlot chart will show altitude changes over time

Zweizeiliger Elementsatz

1 45152U 20008X 25257.57490607 -.00000479 00000-0 -14082-2 0 9995
2 45152 87.8743 91.2328 0001690 82.9331 277.1989 13.10376058272102
Epoch: 14. Sept. 2025 • Age: 19 hours

Aktueller Status

Höhe 1223.9 km
Geschwindigkeit 7.24 km/s
Subsatellitenpunkt 8.67°N, 141.25°E
Startdatum 6. Feb. 2020
Alter 5.6 years
Typ internet

Technische Details

Klassifizierung Payload
Masse 148.00 kg
Trockenmasse 140.00 kg
Gesamtmasse 148.00 kg
Länge 1.30 m
Durchmesser 1.00 m
Spannweite 5.00 m
Form Trapezoid+2 pan
Hersteller ONEWUS
Bus-Typ ARROW
Phasenstatus In Orbit
Besitzer/Staat ONEWEB/UK

Große Konstellationen

Loading constellations...